Missoula, MT

8:54 AM MDT on October 19, 2017 (GMT -0600)
Missoula International

Weather History for KMSO - March, 2014

Change the Weather History Date:

Monday, March 3, 2014

  Actual Average Record
Temperature  
Mean Temperature 28 °F 34 °F  
Max Temperature 41 °F 45 °F 65 °F (1905)
Min Temperature 14 °F 24 °F -8 °F (1917)
Degree Days  
Heating Degree Days 37 30  
Month to date heating degree days 153 92  
Since 1 July heating degree days 5663 5461  
Cooling Degree Days 0 0  
Month to date cooling degree days 0 0  
Year to date cooling degree days 0 0  
Moisture  
Dew Point 22 °F    
Average Humidity 87    
Maximum Humidity 96    
Minimum Humidity 78    
Precipitation  
Precipitation 0.06 in 0.02 in 0.21 in (1991)
Month to date precipitation 0.26 0.08  
Year to date precipitation 3.61 1.63  
Snow  
Snow 0.10 in - - ()
Month to date snowfall 2.9  
Year to date snowfall 49.6  
Since 1 July snowfall 63.5  
Snow Depth 11.00 in    
Sea Level Pressure  
Sea Level Pressure 29.94 in    
Wind  
Wind Speed 3 mph (NW)    
Max Wind Speed 12 mph    
Max Gust Speed 16 mph    
Visibility 7 miles    
Events Rain , Snow    
T = Trace of Precipitation, MM = Missing Value Source: NWS Daily Summary

Daily Weather History Graph

Daily Weather History Graph

Search for Another Location

Airport or City:

Trip Planner

Search our weather history database for the weather conditions in past years. The results will help you decide how hot, cold, wet, or windy it might be!

Date:

Astronomy

Mar. 03, 2014 Rise Set
Actual Time 7:12 AM MST 6:25 PM MST
Civil Twilight 6:41 AM MST 6:55 PM MST
Nautical Twilight 6:06 AM MST 7:30 PM MST
Astronomical Twilight 5:31 AM MST 8:06 PM MST
Moon 8:11 AM MST (3/3) 9:46 PM MST (3/3)
Length of Visible Light 12h 13m
Length of Day
11h 12m
Waxing Crescent, 8% of the Moon is Illuminated
Mar 3
Waxing Crescent
Mar 8
First Quarter
Mar 16
Full
Mar 23
Last Quarter
Mar 30
New

Hourly Weather History & Observations

Time (MST) Temp. Windchill Dew Point Humidity Pressure Visibility Wind Dir Wind Speed Gust Speed Precip Events Conditions
12:53 AM 16.0 °F 10.4 °F 12.0 °F 84% 30.04 in 10.0 mi WSW 3.5 mph - N/A   Mostly Cloudy
1:38 AM 14.0 °F 6.5 °F 10.9 °F 88% 29.86 in 10.0 mi East 4.6 mph - N/A   Mostly Cloudy
1:53 AM 16.0 °F 10.4 °F 12.9 °F 88% 30.03 in 10.0 mi NNE 3.5 mph - N/A   Overcast
2:53 AM 16.0 °F - 14.0 °F 92% 30.01 in 9.0 mi Calm Calm - N/A   Overcast
3:53 AM 16.0 °F - 14.0 °F 92% 30.01 in 10.0 mi Calm Calm - N/A   Overcast
4:53 AM 17.1 °F - 14.0 °F 88% 30.04 in 2.5 mi Calm Calm - 0.00 in Snow Light Snow
5:18 AM 18.0 °F 11.1 °F 15.1 °F 88% 29.88 in 7.0 mi West 4.6 mph - 0.00 in Snow Light Snow
5:48 AM 17.6 °F - 15.8 °F 93% 29.89 in 6.0 mi Calm Calm - 0.01 in Snow Light Snow
5:53 AM 17.1 °F - 15.1 °F 92% 30.04 in 7.0 mi Calm Calm - 0.01 in   Overcast
6:53 AM 18.0 °F 12.7 °F 15.1 °F 88% 30.05 in 9.0 mi WNW 3.5 mph - 0.00 in   Overcast
7:18 AM 18.0 °F 11.1 °F 16.0 °F 92% 29.90 in 8.0 mi NNW 4.6 mph - 0.00 in   Overcast
7:41 AM 19.9 °F - 17.1 °F 89% 29.90 in 4.0 mi Calm Calm - 0.00 in Rain Light Freezing Rain
7:48 AM 19.4 °F - 17.6 °F 93% 29.90 in 7.0 mi Calm Calm - 0.00 in Rain Light Freezing Rain
7:53 AM 19.0 °F - 16.0 °F 88% 30.05 in 9.0 mi Calm Calm - 0.00 in Rain Light Freezing Rain
8:00 AM 18.0 °F 12.7 °F 15.1 °F 88% 29.90 in 10.0 mi West 3.5 mph - 0.00 in   Mostly Cloudy
8:34 AM 17.1 °F 11.7 °F 14.0 °F 88% 29.90 in 1.8 mi NNW 3.5 mph - 0.00 in   Scattered Clouds
8:38 AM 17.1 °F 10.0 °F 14.0 °F 88% 29.90 in 3.0 mi NW 4.6 mph - 0.00 in   Partly Cloudy
8:53 AM 17.1 °F 10.0 °F 14.0 °F 88% 30.05 in 8.0 mi NNW 4.6 mph - 0.00 in   Mostly Cloudy
9:53 AM 19.9 °F 14.9 °F 17.1 °F 89% 30.04 in 10.0 mi SE 3.5 mph - N/A   Overcast
10:53 AM 23.0 °F - 18.0 °F 81% 30.03 in 10.0 mi Calm Calm - N/A   Overcast
11:53 AM 25.0 °F - 21.0 °F 85% 30.00 in 10.0 mi Calm Calm - N/A   Overcast
12:53 PM 28.9 °F - 23.0 °F 78% 29.94 in 9.0 mi Calm Calm - N/A   Mostly Cloudy
1:53 PM 30.9 °F 27.5 °F 25.0 °F 79% 29.92 in 8.0 mi SSE 3.5 mph - N/A   Overcast
2:53 PM 37.9 °F 32.1 °F 33.1 °F 83% 29.89 in 5.0 mi ESE 8.1 mph - 0.01 in Rain Light Rain
3:53 PM 39.9 °F 33.4 °F 35.1 °F 83% 29.86 in 10.0 mi SE 10.4 mph - 0.02 in Rain Light Rain
4:53 PM 35.1 °F - 32.0 °F 89% 29.87 in 7.0 mi Calm Calm - 0.00 in Rain Light Rain
5:48 PM 33.8 °F 29.6 °F 32.0 °F 93% 29.78 in 9.0 mi WNW 4.6 mph - 0.01 in Rain Light Rain
5:53 PM 33.1 °F 28.7 °F 32.0 °F 96% 29.90 in 9.0 mi NW 4.6 mph - 0.01 in Rain Light Rain
6:53 PM 33.1 °F 26.9 °F 32.0 °F 96% 29.91 in 10.0 mi WSW 6.9 mph - 0.01 in   Partly Cloudy
7:53 PM 33.1 °F - 32.0 °F 96% 29.91 in 10.0 mi Calm Calm - N/A   Mostly Cloudy
8:53 PM 33.1 °F - 32.0 °F 96% 29.94 in 10.0 mi Calm Calm - 0.00 in Rain Light Rain
9:53 PM 32.0 °F - 32.0 °F 100% 29.94 in 2.0 mi Calm Calm - 0.00 in   Overcast
10:04 PM 32.0 °F - 32.0 °F 100% 29.83 in 1.5 mi Calm Calm - N/A   Overcast
10:29 PM 33.1 °F 28.7 °F 32.0 °F 96% 29.84 in 3.0 mi NE 4.6 mph - 0.00 in Rain Light Rain
10:53 PM 33.1 °F 27.7 °F 32.0 °F 96% 29.93 in 3.0 mi North 5.8 mph - 0.00 in   Overcast
11:39 PM 32.0 °F - 30.9 °F 96% 29.83 in 2.5 mi Calm Calm - N/A   Mostly Cloudy
11:53 PM 32.0 °F 25.6 °F 30.9 °F 96% 29.93 in 2.0 mi WSW 6.9 mph - N/A   Overcast